Location: Caltech
(34.1382°N, 118.1253°W)
Time: 05:52:27
(UTC-07:00)

Aureole 3 Rocket - Visible Passes

Search period start: 23 September 2017 00:00
Search period end: 03 October 2017 00:00
Orbit: 398 x 1744 km, 82.5° (Epoch: 23 September)

Date Brightness Start Highest point End Pass type
(mag) Time Alt. Az. Time Alt. Az. Time Alt. Az.
23 Sep 6.9 05:48:18 10° SE 05:55:36 29° E 06:01:31 10° NE visible
24 Sep 7.8 05:00:43 10° E 05:02:47 11° E 05:04:44 10° ENE visible
25 Sep 6.3 05:49:07 10° SSE 05:56:54 36° E 06:02:56 10° NNE visible
26 Sep 7.4 04:59:50 10° ESE 05:03:56 15° E 05:07:34 10° ENE visible
27 Sep 5.7 05:50:10 10° SSE 05:58:11 45° E 06:04:13 10° NNE visible
28 Sep 7.0 04:59:53 10° SE 05:05:08 19° E 05:09:31 10° NE visible
29 Sep 5.1 05:51:22 10° S 05:59:28 58° E 06:05:22 10° NNE visible
30 Sep 6.5 05:00:22 10° SE 05:06:21 24° E 05:11:08 10° NE visible
01 Oct 4.5 05:52:44 10° S 06:00:43 75° E 06:06:24 10° NNE visible
02 Oct 6.0 05:01:05 10° SSE 05:07:34 31° E 05:12:32 10° NNE visible
